Location: Shenandoah County Park
(38.9356°N, 78.4524°W)
Time: 07:36:58
(UTC-04:00)

Vanguard 1 Rocket - Pass Details

Date: 10 February 2023
Orbit: 652 x 4223 km, 34.3° (Epoch: 26 March)

Event Time Altitude Azimuth Distance (km) Brightness Sun altitude
Rises 18:42:46 0° 276° (W) 6,796 13.5 -11.7°
Reaches altitude 10° 18:48:41 10° 263° (W) 6,314 13.2 -12.8°
Maximum altitude 19:02:25 21° 223° (SW) 6,219 12.2 -15.5°
Drops below altitude 10° 19:18:41 10° 184° (S) 7,398 12.1 -18.6°
Sets 19:26:59 0° 170° (S) 8,228 12.2 -20.2°
